SCP
-0 -0 -1 -0 -0 -0 -0 -0 -0 -0 -0 -0 -0 -0 -0 0 0 0 0 0 -0 0 0 0 0 -0 -0 0 0 0 0 0 0 0 0 0 0 0 0 0 0 0 0
-0 -0 -0 -0 -0 -0 -0 -0 -0 -0 -0 -0 -0 -0 -0 0 0 0 0 0 0 0 0 0 0 -0 0 0 0 0 0 0 0 0 0 0 0 0 0 0 0 0 0
-0 -0 -0 -0 -0 -0 -0 -0 -0 -0 -0 -0 -0 -0 -0 0 0 -0 0 0 0 0 0 0 -0 -0 0 0 0 0 0 0 0 0 0 0 0 0 0 0 0 0 0
-0 -0 -0 -0 -0 -0 -0 -0 -0 -0 -0 -0 -0 -0 0 0 0 0 -0 0 -0 0 0 0 -0 -0 -0 -0 0 0 0 0 0 0 0 0 0 0 0 0 0 0 0
0 0 -0 0 0 -0 -0 -0 -0 -0 -0 -0 -0 0 0 0 0 0 -0 -0 0 0 0 -0 -0 -0 -0 -0 -0 0 0 0 0 -0 0 0 0 0 0 0 0 0 0
0 0 0 0 0 0 0 0 0 0 0 0 0 0 0 0 0 0 0 0 0 0 0 -0 -0 -0 0 0 0 0 0 0 0 -0 0 0 0 0 0 0 0 0 0
0 0 0 0 0 0 0 0 0 0 0 0 0 -0 -0 -0 -0 -0 0 0 0 -0 0 0 0 0 0 0 0 0 0 0 -0 -0 0 0 0 0 0 0 0 0 0
0 0 1 1 1 1 0 0 0 0 0 0 0 0 -0 -0 -0 -0 -0 -0 -0 0 0 0 0 0 0 0 0 0 0 0 -0 0 -0 0 0 0 0 0 0 0 0
0 0 1 0 1 1 1 1 1 1 0 0 0 0 -0 -0 -0 -0 -0 -0 0 0 0 0 0 -0 -0 -0 0 0 -0 0 0 0 -0 0 0 0 0 0 0 0 0
0 0 0 0 0 0 0 1 1 1 1 0 0 0 0 -0 -0 -0 -0 -0 0 0 0 0 0 0 0 -0 0 0 0 0 0 -0 0 0 0 0 0 0 0 0 0
0 0 0 0 0 0 0 0 1 0 0 1 0 0 0 -0 -0 -0 -0 0 0 0 0 0 0 0 0 0 0 0 0 0 0 0 -0 0 0 0 0 0 0 0 0
0 0 0 0 0 0 0 0 0 0 0 0 0 0 0 -0 -0 -0 0 0 0 0 0 0 0 0 0 -0 0 0 0 0 0 0 0 0 0 0 0 0 0 0 0
0 0 0 1 1 0 0 0 0 0 0 0 0 0 0 0 0 0 0 0 0 0 0 0 0 0 0 0 0 0 0 0 0 0 0 0 0 0 0 0 0 0 0
0 0 0 1 2 2 0 1 1 0 0 0 0 1 1 1 1 1 0 0 0 0 0 0 0 0 0 0 0 0 0 0 0 0 0 0 0 0 0 0 0 0 0
0 1 1 1 2 3 1 1 1 1 1 1 1 1 1 1 2 1 1 0 0 0 0 0 0 0 0 0 0 0 0 0 0 0 0 0 0 0 0 0 0 0 0
1 1 1 1 3 2 3 2 3 2 1 1 1 1 2 3 4 1 1 1 0 0 0 0 0 0 0 0 0 0 0 0 0 0 0 0 0 0 0 0 0 0 0
0 1 1 1 1 2 2 2 2 1 1 1 1 4 3 4 5 3 2 2 1 2 1 1 0 0 0 0 0 0 0 0 0 0 0 0 0 0 0 0 0 0 0
0 0 0 1 1 2 2 2 2 1 2 1 2 3 5 4 4 5 2 1 2 2 2 1 0 0 0 0 1 1 1 1 1 1 0 0 0 0 0 0 0 0 0
0 0 0 0 1 2 2 1 2 2 2 2 2 3 4 4 4 7 4 3 3 2 3 1 1 1 1 1 0 1 1 1 1 1 1 1 1 1 0 1 0 0 0
0 0 0 0 1 3 2 3 2 2 3 3 3 3 4 4 4 4 4 6 6 4 3 2 4 3 2 2 0 1 1 1 1 1 1 1 1 1 1 2 1 1 0
0 0 0 0 0 1 1 2 2 2 2 3 3 5 5 6 3 3 4 8 6 9 7 4 4 8 5 4 4 3 3 0 0 1 0 1 1 1 1 2 4 2 1
0 0 0 0 0 1 1 3 3 4 4 4 3 5 5 5 5 4 4 6 6 7 7 5 6 3 4 5 5 3 6 5 2 1 1 1 3 2 1 3 4 4 1
0 0 0 0 0 1 1 3 5 4 7 4 4 5 5 5 5 5 5 5 8 10 8 11 9 6 4 4 8 7 11 6 12 5 3 1 2 2 2 2 3 7 4
0 0 0 0 0 0 1 1 3 4 4 4 4 4 6 5 4 5 5 6 8 7 6 10 10 9 10 7 6 6 6 4 3 3 6 6 7 2 2 2 2 3 5
0 0 0 0 0 0 1 2 1 2 2 3 4 4 7 9 6 3 6 7 8 9 8 9 8 8 5 6 4 4 3 3 4 1 1 1 2 2 1 2 2 3 3
0 0 0 0 0 0 0 1 2 3 3 4 5 5 5 6 10 8 5 9 10 11 11 9 10 8 7 5 3 2 2 1 1 2 1 1 1 1 1 3 3 3 3
Wind_Speed_500mb
28 35 36 38 41 42 39 37 35 31 30 30 26 21 22 24 26 27 29 29 27 25 22 20 16 14 13 15 19 20 19 19 17 18 19 17 17 17 15 18 28 5 13
37 35 37 40 41 41 40 37 33 32 29 29 25 21 23 25 26 26 25 24 23 20 17 15 13 12 14 17 18 16 16 16 16 15 19 24 16 14 14 16 13 10 13
33 36 38 40 43 43 40 36 34 33 31 29 25 22 23 24 24 25 24 22 19 16 14 13 13 13 15 15 14 14 13 12 14 20 25 13 13 12 12 12 10 10 12
30 37 39 42 42 43 42 38 36 36 34 31 26 22 22 24 24 24 23 21 18 16 14 13 13 13 13 13 11 11 10 9 10 16 17 3 2 10 9 8 9 8 8
28 34 39 42 42 41 41 39 38 39 38 34 28 22 21 23 24 23 22 20 18 17 15 14 13 12 11 10 9 8 7 5 7 14 7 2 2 14 8 7 6 7 7
26 30 33 39 41 41 38 35 37 41 42 38 32 25 22 23 24 23 22 20 18 16 14 13 13 11 9 7 5 3 2 0 4 11 9 11 5 19 9 5 7 6 4
26 29 28 40 39 39 37 35 35 39 44 42 37 30 25 25 25 24 23 20 17 15 14 13 12 10 7 5 4 3 4 4 3 7 11 10 12 19 12 8 5 5 5
26 29 26 39 40 39 36 34 34 38 42 43 39 33 29 29 28 26 24 21 19 17 15 13 11 9 6 4 5 5 5 6 4 13 11 10 23 16 14 12 11 8 8
26 29 26 37 39 39 38 35 35 38 43 44 41 38 33 32 31 30 27 24 21 19 17 15 12 10 8 6 8 8 8 7 4 1 12 13 23 19 15 16 16 15 12
23 26 25 36 41 43 43 40 38 40 44 47 46 43 39 36 36 34 31 28 25 23 20 17 14 12 11 10 10 12 12 11 8 4 14 18 20 21 18 17 18 18 17
22 25 24 30 35 38 37 44 44 43 45 48 50 50 45 39 38 38 34 32 29 26 24 21 18 15 13 12 11 17 20 16 11 15 9 26 25 19 20 21 20 19 20
26 28 27 29 33 35 34 35 46 47 49 52 54 56 52 43 32 30 30 35 31 30 28 25 22 19 16 12 22 27 20 11 14 16 17 30 29 22 21 24 23 23 22
33 30 32 35 38 36 34 34 33 39 42 49 53 54 53 38 34 33 31 41 38 34 30 26 26 22 17 14 13 18 18 18 15 14 24 34 32 25 21 23 24 25 24
44 38 36 37 43 44 36 38 34 39 41 42 46 56 48 52 44 38 36 24 34 33 35 24 17 18 20 22 22 22 20 19 12 15 22 33 30 26 24 24 24 24 22
46 37 38 38 42 47 55 41 44 44 46 42 42 50 55 48 48 46 39 36 31 28 26 27 25 24 20 21 19 19 19 20 20 16 16 30 29 26 25 25 26 27 24
30 27 35 40 45 46 47 55 50 49 43 45 44 47 60 55 50 46 51 43 38 34 31 29 27 24 20 17 20 21 19 19 19 20 19 22 33 30 28 26 25 27 27
31 31 30 37 39 44 42 41 57 45 48 47 50 53 61 69 67 67 55 51 43 40 40 36 33 32 29 22 22 23 21 20 21 21 21 20 22 31 31 30 26 26 28
27 28 27 33 36 43 41 40 41 48 47 49 53 57 65 66 71 72 48 48 55 51 47 39 33 30 25 21 21 22 20 21 24 25 24 23 23 23 27 27 32 30 28
28 29 27 29 35 39 42 40 42 46 52 54 56 59 67 72 73 75 65 56 47 47 54 50 44 38 34 30 25 25 25 26 25 24 29 32 33 32 33 26 31 33 28
16 19 25 30 34 38 42 44 42 46 54 58 60 60 59 65 65 73 66 61 60 60 52 53 59 55 52 39 26 26 29 28 27 25 28 28 30 33 34 26 27 20 23
19 19 23 27 36 46 41 45 47 48 49 53 56 59 59 64 60 60 72 75 73 87 79 75 55 54 48 39 37 30 26 23 19 25 21 9 14 17 19 20 17 3 9
24 22 20 23 26 33 35 49 56 53 54 53 52 55 59 62 63 54 62 64 83 83 83 68 61 55 52 40 36 25 28 20 21 13 14 9 5 4 9 5 15 18 22
22 24 23 24 25 30 33 40 50 52 58 55 56 55 56 61 62 61 60 66 65 75 66 74 70 62 43 38 54 33 19 32 27 28 19 18 29 14 15 16 13 13 19
22 20 23 26 29 30 32 34 49 57 61 65 66 61 61 61 61 61 65 64 74 65 64 72 65 62 60 47 45 48 50 48 41 42 60 53 49 43 34 25 29 23 10
23 23 23 25 29 32 34 39 41 49 62 64 65 65 64 58 64 61 66 70 70 72 62 61 58 58 53 62 54 50 54 55 55 41 50 54 58 63 66 51 45 36 27
28 30 28 29 31 31 33 37 44 54 60 56 63 66 65 65 67 70 63 71 75 74 69 70 64 67 74 63 52 65 55 47 51 55 58 62 70 73 58 49 42 44 42
Wind_Direction_500mb
151 158 164 165 168 167 168 166 164 158 152 150 144 139 139 141 141 140 138 135 135 135 138 135 130 127 123 121 118 114 105 96 87 79 75 72 76 79 84 91 70 77 60
157 159 163 167 171 175 174 175 173 170 164 159 151 147 146 148 149 145 146 146 145 145 144 137 134 132 129 125 118 113 104 94 81 79 72 50 58 71 77 82 96 86 72
155 158 164 169 172 178 181 184 184 183 176 172 163 156 154 157 156 156 157 159 157 153 147 140 136 136 129 129 124 113 107 99 84 77 69 85 6 50 65 74 74 76 81
156 161 168 171 175 179 185 189 192 192 187 183 176 168 165 166 166 168 166 166 162 159 154 146 144 139 134 132 125 112 104 99 87 87 53 70 322 10 53 75 72 67 83
156 162 175 175 177 182 186 189 197 199 195 191 187 183 179 179 177 177 173 172 170 168 161 154 152 148 145 138 129 123 111 91 75 70 34 311 154 289 12 51 85 61 39
162 168 178 180 181 181 185 189 199 199 200 197 195 194 194 195 192 187 184 181 178 176 166 166 165 163 160 148 144 146 152 118 59 34 314 297 245 263 291 349 49 50 32
168 175 193 184 185 186 185 186 193 203 201 202 202 202 203 205 203 198 195 189 190 186 182 181 176 175 172 168 187 217 255 274 265 318 284 291 274 272 268 291 323 4 10
174 177 205 189 189 191 192 190 189 198 206 207 210 213 212 212 210 205 203 199 201 201 198 197 190 183 185 202 238 248 268 285 274 317 293 278 274 276 274 284 296 306 325
176 176 197 194 195 198 199 199 197 199 209 212 218 220 221 223 216 211 208 207 212 216 215 210 205 209 216 223 259 275 286 298 353 265 301 306 277 292 287 290 292 291 291
183 181 185 191 200 202 203 204 207 207 210 216 220 225 227 228 226 219 214 212 212 219 224 224 224 225 235 250 273 286 290 291 320 316 293 269 285 284 283 288 296 291 281
197 194 191 194 199 199 205 210 208 212 214 217 221 225 227 229 232 230 221 219 217 223 227 229 231 237 251 265 292 304 297 292 273 284 282 269 292 294 297 300 300 296 285
211 209 205 197 202 200 204 217 216 214 213 216 221 226 224 220 215 220 234 232 228 225 230 237 241 248 253 273 303 311 311 285 270 265 269 277 295 297 300 304 305 301 291
218 217 212 204 204 201 202 214 214 209 214 218 217 220 221 213 211 216 222 234 230 230 236 243 250 252 260 258 253 283 276 272 271 267 264 276 290 296 306 306 306 305 298
216 213 215 214 204 209 205 213 220 208 215 210 215 218 208 205 210 209 210 222 233 225 230 220 245 245 249 256 263 258 256 260 262 262 271 281 289 296 304 303 299 296 296
231 209 218 217 218 216 201 214 214 212 219 215 216 220 210 209 206 211 210 205 221 212 229 212 221 229 251 273 271 270 266 255 257 266 268 286 304 299 297 293 294 291 292
237 222 218 223 224 231 231 204 225 216 215 218 216 219 227 213 217 214 210 209 210 210 216 221 222 230 255 256 260 266 263 255 262 267 270 279 297 307 299 296 293 289 288
231 230 226 227 226 226 229 234 216 225 220 222 218 224 233 223 215 224 221 217 211 214 211 218 220 235 243 251 254 251 268 272 273 275 274 276 281 294 308 304 305 290 282
238 230 232 227 226 229 234 232 229 229 227 225 227 221 230 236 224 229 218 229 229 226 234 228 230 236 232 236 246 250 250 259 264 268 276 277 272 266 278 293 301 299 283
250 248 242 233 233 234 247 238 238 232 232 230 225 229 236 233 231 226 223 229 230 237 241 238 249 234 231 224 233 247 252 256 264 276 272 269 281 280 275 271 281 292 289
299 282 267 258 239 228 237 248 240 241 236 232 231 229 230 240 231 226 223 211 237 255 252 250 237 228 233 224 229 237 242 255 266 265 272 280 275 271 266 256 266 289 288
295 299 293 281 275 263 243 243 244 244 242 237 234 232 229 233 232 233 223 219 217 234 239 237 219 216 229 218 214 233 244 253 273 272 277 250 264 286 263 238 253 231 287
282 286 288 283 272 265 252 247 241 243 242 239 237 235 231 229 236 236 224 223 229 232 227 225 231 236 229 219 219 219 227 236 250 250 247 242 203 237 233 256 238 244 265
273 281 291 296 289 277 263 243 246 244 241 240 237 237 234 231 231 231 227 217 226 226 225 231 233 233 224 215 219 222 223 239 238 265 285 275 263 239 252 235 232 241 266
283 289 297 299 298 291 287 262 241 243 241 239 240 239 235 236 228 230 226 228 215 227 219 234 228 234 227 213 227 236 235 251 241 245 250 245 261 273 264 236 231 230 235
291 299 301 304 305 299 284 264 257 253 247 246 245 244 238 235 242 230 228 222 226 219 222 212 224 220 220 224 236 238 242 238 241 239 249 251 262 260 270 266 250 243 233
296 300 300 302 302 301 298 284 270 259 243 246 248 243 241 234 233 243 227 228 223 226 216 214 220 233 239 234 233 233 236 237 238 246 253 263 259 261 256 259 256 263 256
Wind_Speed_850mb
28 35 36 38 41 42 39 37 35 31 30 30 26 21 22 24 26 27 29 29 27 25 22 20 16 14 13 15 19 20 19 19 17 18 19 17 17 17 15 18 28 5 13
37 35 37 40 41 41 40 37 33 32 29 29 25 21 23 25 26 26 25 24 23 20 17 15 13 12 14 17 18 16 16 16 16 15 19 24 16 14 14 16 13 10 13
33 36 38 40 43 43 40 36 34 33 31 29 25 22 23 24 24 25 24 22 19 16 14 13 13 13 15 15 14 14 13 12 14 20 25 13 13 12 12 12 10 10 12
30 37 39 42 42 43 42 38 36 36 34 31 26 22 22 24 24 24 23 21 18 16 14 13 13 13 13 13 11 11 10 9 10 16 17 3 2 10 9 8 9 8 8
28 34 39 42 42 41 41 39 38 39 38 34 28 22 21 23 24 23 22 20 18 17 15 14 13 12 11 10 9 8 7 5 7 14 7 2 2 14 8 7 6 7 7
26 30 33 39 41 41 38 35 37 41 42 38 32 25 22 23 24 23 22 20 18 16 14 13 13 11 9 7 5 3 2 0 4 11 9 11 5 19 9 5 7 6 4
26 29 28 40 39 39 37 35 35 39 44 42 37 30 25 25 25 24 23 20 17 15 14 13 12 10 7 5 4 3 4 4 3 7 11 10 12 19 12 8 5 5 5
26 29 26 39 40 39 36 34 34 38 42 43 39 33 29 29 28 26 24 21 19 17 15 13 11 9 6 4 5 5 5 6 4 13 11 10 23 16 14 12 11 8 8
26 29 26 37 39 39 38 35 35 38 43 44 41 38 33 32 31 30 27 24 21 19 17 15 12 10 8 6 8 8 8 7 4 1 12 13 23 19 15 16 16 15 12
23 26 25 36 41 43 43 40 38 40 44 47 46 43 39 36 36 34 31 28 25 23 20 17 14 12 11 10 10 12 12 11 8 4 14 18 20 21 18 17 18 18 17
22 25 24 30 35 38 37 44 44 43 45 48 50 50 45 39 38 38 34 32 29 26 24 21 18 15 13 12 11 17 20 16 11 15 9 26 25 19 20 21 20 19 20
26 28 27 29 33 35 34 35 46 47 49 52 54 56 52 43 32 30 30 35 31 30 28 25 22 19 16 12 22 27 20 11 14 16 17 30 29 22 21 24 23 23 22
33 30 32 35 38 36 34 34 33 39 42 49 53 54 53 38 34 33 31 41 38 34 30 26 26 22 17 14 13 18 18 18 15 14 24 34 32 25 21 23 24 25 24
44 38 36 37 43 44 36 38 34 39 41 42 46 56 48 52 44 38 36 24 34 33 35 24 17 18 20 22 22 22 20 19 12 15 22 33 30 26 24 24 24 24 22
46 37 38 38 42 47 55 41 44 44 46 42 42 50 55 48 48 46 39 36 31 28 26 27 25 24 20 21 19 19 19 20 20 16 16 30 29 26 25 25 26 27 24
30 27 35 40 45 46 47 55 50 49 43 45 44 47 60 55 50 46 51 43 38 34 31 29 27 24 20 17 20 21 19 19 19 20 19 22 33 30 28 26 25 27 27
31 31 30 37 39 44 42 41 57 45 48 47 50 53 61 69 67 67 55 51 43 40 40 36 33 32 29 22 22 23 21 20 21 21 21 20 22 31 31 30 26 26 28
27 28 27 33 36 43 41 40 41 48 47 49 53 57 65 66 71 72 48 48 55 51 47 39 33 30 25 21 21 22 20 21 24 25 24 23 23 23 27 27 32 30 28
28 29 27 29 35 39 42 40 42 46 52 54 56 59 67 72 73 75 65 56 47 47 54 50 44 38 34 30 25 25 25 26 25 24 29 32 33 32 33 26 31 33 28
16 19 25 30 34 38 42 44 42 46 54 58 60 60 59 65 65 73 66 61 60 60 52 53 59 55 52 39 26 26 29 28 27 25 28 28 30 33 34 26 27 20 23
19 19 23 27 36 46 41 45 47 48 49 53 56 59 59 64 60 60 72 75 73 87 79 75 55 54 48 39 37 30 26 23 19 25 21 9 14 17 19 20 17 3 9
24 22 20 23 26 33 35 49 56 53 54 53 52 55 59 62 63 54 62 64 83 83 83 68 61 55 52 40 36 25 28 20 21 13 14 9 5 4 9 5 15 18 22
22 24 23 24 25 30 33 40 50 52 58 55 56 55 56 61 62 61 60 66 65 75 66 74 70 62 43 38 54 33 19 32 27 28 19 18 29 14 15 16 13 13 19
22 20 23 26 29 30 32 34 49 57 61 65 66 61 61 61 61 61 65 64 74 65 64 72 65 62 60 47 45 48 50 48 41 42 60 53 49 43 34 25 29 23 10
23 23 23 25 29 32 34 39 41 49 62 64 65 65 64 58 64 61 66 70 70 72 62 61 58 58 53 62 54 50 54 55 55 41 50 54 58 63 66 51 45 36 27
28 30 28 29 31 31 33 37 44 54 60 56 63 66 65 65 67 70 63 71 75 74 69 70 64 67 74 63 52 65 55 47 51 55 58 62 70 73 58 49 42 44 42
Wind_Direction_850mb
151 158 164 165 168 167 168 166 164 158 152 150 144 139 139 141 141 140 138 135 135 135 138 135 130 127 123 121 118 114 105 96 87 79 75 72 76 79 84 91 70 77 60
157 159 163 167 171 175 174 175 173 170 164 159 151 147 146 148 149 145 146 146 145 145 144 137 134 132 129 125 118 113 104 94 81 79 72 50 58 71 77 82 96 86 72
155 158 164 169 172 178 181 184 184 183 176 172 163 156 154 157 156 156 157 159 157 153 147 140 136 136 129 129 124 113 107 99 84 77 69 85 6 50 65 74 74 76 81
156 161 168 171 175 179 185 189 192 192 187 183 176 168 165 166 166 168 166 166 162 159 154 146 144 139 134 132 125 112 104 99 87 87 53 70 322 10 53 75 72 67 83
156 162 175 175 177 182 186 189 197 199 195 191 187 183 179 179 177 177 173 172 170 168 161 154 152 148 145 138 129 123 111 91 75 70 34 311 154 289 12 51 85 61 39
162 168 178 180 181 181 185 189 199 199 200 197 195 194 194 195 192 187 184 181 178 176 166 166 165 163 160 148 144 146 152 118 59 34 314 297 245 263 291 349 49 50 32
168 175 193 184 185 186 185 186 193 203 201 202 202 202 203 205 203 198 195 189 190 186 182 181 176 175 172 168 187 217 255 274 265 318 284 291 274 272 268 291 323 4 10
174 177 205 189 189 191 192 190 189 198 206 207 210 213 212 212 210 205 203 199 201 201 198 197 190 183 185 202 238 248 268 285 274 317 293 278 274 276 274 284 296 306 325
176 176 197 194 195 198 199 199 197 199 209 212 218 220 221 223 216 211 208 207 212 216 215 210 205 209 216 223 259 275 286 298 353 265 301 306 277 292 287 290 292 291 291
183 181 185 191 200 202 203 204 207 207 210 216 220 225 227 228 226 219 214 212 212 219 224 224 224 225 235 250 273 286 290 291 320 316 293 269 285 284 283 288 296 291 281
197 194 191 194 199 199 205 210 208 212 214 217 221 225 227 229 232 230 221 219 217 223 227 229 231 237 251 265 292 304 297 292 273 284 282 269 292 294 297 300 300 296 285
211 209 205 197 202 200 204 217 216 214 213 216 221 226 224 220 215 220 234 232 228 225 230 237 241 248 253 273 303 311 311 285 270 265 269 277 295 297 300 304 305 301 291
218 217 212 204 204 201 202 214 214 209 214 218 217 220 221 213 211 216 222 234 230 230 236 243 250 252 260 258 253 283 276 272 271 267 264 276 290 296 306 306 306 305 298
216 213 215 214 204 209 205 213 220 208 215 210 215 218 208 205 210 209 210 222 233 225 230 220 245 245 249 256 263 258 256 260 262 262 271 281 289 296 304 303 299 296 296
231 209 218 217 218 216 201 214 214 212 219 215 216 220 210 209 206 211 210 205 221 212 229 212 221 229 251 273 271 270 266 255 257 266 268 286 304 299 297 293 294 291 292
237 222 218 223 224 231 231 204 225 216 215 218 216 219 227 213 217 214 210 209 210 210 216 221 222 230 255 256 260 266 263 255 262 267 270 279 297 307 299 296 293 289 288
231 230 226 227 226 226 229 234 216 225 220 222 218 224 233 223 215 224 221 217 211 214 211 218 220 235 243 251 254 251 268 272 273 275 274 276 281 294 308 304 305 290 282
238 230 232 227 226 229 234 232 229 229 227 225 227 221 230 236 224 229 218 229 229 226 234 228 230 236 232 236 246 250 250 259 264 268 276 277 272 266 278 293 301 299 283
250 248 242 233 233 234 247 238 238 232 232 230 225 229 236 233 231 226 223 229 230 237 241 238 249 234 231 224 233 247 252 256 264 276 272 269 281 280 275 271 281 292 289
299 282 267 258 239 228 237 248 240 241 236 232 231 229 230 240 231 226 223 211 237 255 252 250 237 228 233 224 229 237 242 255 266 265 272 280 275 271 266 256 266 289 288
295 299 293 281 275 263 243 243 244 244 242 237 234 232 229 233 232 233 223 219 217 234 239 237 219 216 229 218 214 233 244 253 273 272 277 250 264 286 263 238 253 231 287
282 286 288 283 272 265 252 247 241 243 242 239 237 235 231 229 236 236 224 223 229 232 227 225 231 236 229 219 219 219 227 236 250 250 247 242 203 237 233 256 238 244 265
273 281 291 296 289 277 263 243 246 244 241 240 237 237 234 231 231 231 227 217 226 226 225 231 233 233 224 215 219 222 223 239 238 265 285 275 263 239 252 235 232 241 266
283 289 297 299 298 291 287 262 241 243 241 239 240 239 235 236 228 230 226 228 215 227 219 234 228 234 227 213 227 236 235 251 241 245 250 245 261 273 264 236 231 230 235
291 299 301 304 305 299 284 264 257 253 247 246 245 244 238 235 242 230 228 222 226 219 222 212 224 220 220 224 236 238 242 238 241 239 249 251 262 260 270 266 250 243 233
296 300 300 302 302 301 298 284 270 259 243 246 248 243 241 234 233 243 227 228 223 226 216 214 220 233 239 234 233 233 236 237 238 246 253 263 259 261 256 259 256 263 256